Effective Sunday, March 17, 2024, the National Weather Service National Data Buoy Center will discontinue its Dial-A-Buoy Interactive Voice Response system. For more information, see Service Change Notice 24-06 (PDF).

Station BKBF1 - 8720357 - I-295 Buckman Bridge, St Johns River, FL Image indicating link to RSS feed of recent meteorological observations for station BKBF1


Conditions at BKBF1 as of
(12:18 am EST)
0518 GMT on 02/23/2024:
     

Click on the graph icon in the table below to see a time series plot of the last five days of that observation.

5-day plot - Wind Direction Wind Direction (WDIR):WSW ( 240 deg true )
5-day plot - Wind Speed Wind Speed (WSPD): 5.1 kts
5-day plot - Wind Gust Wind Gust (GST): 8.9 kts
5-day plot - Atmospheric Pressure Atmospheric Pressure (PRES):29.89 in
5-day plot - Air Temperature Air Temperature (ATMP): 56.5 °F
5-day plot - Wind Speed at 10 Meters Wind Speed at 10 meters (WSPD10M): 5.8 kts
5-day plot - Wind Speed at 20 Meters Wind Speed at 20 meters (WSPD20M): 5.8 kts
5-day plot -  Wind Speed, Wind Gust and Atmospheric Pressure Combined plot of Wind Speed, Gust, and Air Pressure
NOS Water Level Observation Network Water Level
Previous observations
TIME
(EST)
5-day plot - Wind Direction
WDIR
 
5-day plot - Wind Speed
WSPD
kts
5-day plot - Wind Gust
GST
kts
5-day plot - Wave Height
WVHT
ft
5-day plot - Dominant Wave Period
DPD
sec
5-day plot - Average Wave Period
APD
sec
5-day plot - Mean Wave Direction
MWD
 
5-day plot - Atmospheric Pressure
PRES
in
5-day plot - Pressure Tendency
PTDY
in
5-day plot - Air Temperature
ATMP
°F
5-day plot - Water Temperature
WTMP
°F
5-day plot - Dew Point
DEWP
°F
5-day plot - Salinity
SAL
psu
5-day plot - Visibility
VIS
nmi
5-day plot - Tide (above MLLW)
TIDE
ft
2024-02-23 12:12 amWSW 6.0 8.0----29.89- 56.7-----
2024-02-23 12:06 amWSW 5.1 8.9----29.90- 56.7-----
2024-02-23 12:00 amWSW 7.0 9.9----29.90-0.04 57.0-----
2024-02-22 11:54 pmWSW 5.1 7.0----29.90- 56.8-----
2024-02-22 11:48 pmWSW 5.1 7.0----29.90- 57.2-----
2024-02-22 11:42 pmWSW 5.1 8.0----29.90- 57.2-----
2024-02-22 11:36 pmWSW 5.1 7.0----29.91- 57.6-----
2024-02-22 11:30 pmWSW 5.1 7.0----29.91- 57.7-----
2024-02-22 11:24 pmWSW 6.0 7.0----29.91- 57.9-----
2024-02-22 11:18 pmWSW 7.0 8.9----29.91- 58.1-----
2024-02-22 11:12 pmWSW 6.0 8.0----29.91- 58.1-----
2024-02-22 11:06 pmWSW 5.1 8.0----29.92- 58.3-----
2024-02-22 11:00 pmWSW 5.1 8.0----29.92-0.01 58.3-----
2024-02-22 10:54 pmWSW 5.1 8.0----29.92- 58.6-----
2024-02-22 10:48 pmWSW 4.1 8.0----29.92- 58.8-----
2024-02-22 10:42 pmWSW 5.1 8.0----29.93- 59.0-----
2024-02-22 10:36 pmWSW 5.1 8.0----29.93- 59.4-----
2024-02-22 10:30 pmWSW 6.0 8.9----29.93- 59.5-----
2024-02-22 10:24 pmWSW 5.1 8.0----29.93- 59.5-----
2024-02-22 10:18 pmWSW 6.0 8.0----29.93- 59.9-----
2024-02-22 10:12 pmWSW 4.1 8.0----29.93- 60.3-----
2024-02-22 10:06 pmWSW 6.0 8.9----29.93- 60.4-----
2024-02-22 10:00 pmWSW 6.0 8.9----29.93+0.00 60.8-----
2024-02-22 09:54 pmWSW 5.1 11.1----29.93- 61.0-----
2024-02-22 09:48 pmWSW 6.0 9.9----29.93- 61.2-----
2024-02-22 09:42 pmWSW 7.0 9.9----29.93- 61.5-----
2024-02-22 09:36 pmWSW 5.1 9.9----29.93- 61.7-----
2024-02-22 09:30 pmWSW 5.1 8.9----29.93- 62.1-----
2024-02-22 09:24 pmWSW 6.0 8.9----29.93- 62.6-----
2024-02-22 09:18 pmWSW 5.1 8.0----29.93- 62.8-----
2024-02-22 09:12 pmWSW 5.1 7.0----29.93- 63.0-----
2024-02-22 09:06 pmWSW 5.1 7.0----29.93- 63.3-----
2024-02-22 09:00 pmWSW 6.0 8.9----29.93-0.01 63.7-----
2024-02-22 08:54 pmWSW 6.0 8.9----29.93- 64.2-----
2024-02-22 08:48 pmWSW 6.0 8.0----29.93- 64.4-----
2024-02-22 08:42 pm SW 6.0 8.9----29.93- 64.8-----
2024-02-22 08:36 pm SW 6.0 8.0----29.93- 65.1-----
2024-02-22 08:30 pm SW 5.1 8.0----29.93- 65.3-----
2024-02-22 08:24 pm SW 6.0 8.0----29.93- 65.7-----
2024-02-22 08:18 pm SW 5.1 8.0----29.93- 66.0-----
2024-02-22 08:12 pm SW 6.0 8.0----29.93- 66.4-----
2024-02-22 08:06 pm SW 6.0 8.0----29.93- 66.6-----
2024-02-22 08:00 pm SW 6.0 8.0----29.93-0.01 66.6-----
2024-02-22 07:54 pm SW 5.1 7.0----29.93- 66.6-----
2024-02-22 07:48 pm SW 5.1 7.0----29.94- 66.9-----
2024-02-22 07:42 pm SW 4.1 5.1----29.94- 66.9-----
2024-02-22 07:36 pm SW 4.1 5.1----29.94- 67.1-----
2024-02-22 07:30 pm SW 4.1 6.0----29.94- 67.1-----
2024-02-22 07:24 pm SW 4.1 5.1----29.93- 67.1-----
2024-02-22 07:18 pm SW 2.9 5.1----29.93- 66.9-----
2024-02-22 07:12 pmSSW 2.9 5.1----29.93- 66.9-----
2024-02-22 07:06 pm SW 2.9 5.1----29.93- 67.1-----
2024-02-22 07:00 pmSSW 2.9 5.1----29.93-0.02 67.6-----
2024-02-22 06:54 pm SW 4.1 5.1----29.93- 67.8-----
2024-02-22 06:48 pm SW 4.1 5.1----29.93- 67.8-----
2024-02-22 06:42 pm SW 4.1 6.0----29.93- 68.0-----
2024-02-22 06:36 pm SW 4.1 7.0----29.94- 68.4-----
2024-02-22 06:30 pm SW 4.1 6.0----29.94-------
2024-02-22 06:24 pm SW 4.1 7.0----29.94-------
2024-02-22 06:18 pm SW 5.1 7.0----29.95- 69.3-----
2024-02-22 06:00 pm SW 5.1 8.9----29.94-0.03------
2024-02-22 05:54 pm SW 5.1 8.0----29.94-------
2024-02-22 05:48 pm SW 6.0 8.9----29.94- 71.2-----
2024-02-22 05:42 pm SW 6.0 8.9----29.94- 71.6-----
2024-02-22 05:36 pm SW 8.0 11.1----29.94- 71.8-----
2024-02-22 05:30 pm SW 6.0 11.1----29.94- 72.1-----
2024-02-22 05:24 pm SW 7.0 9.9----29.94- 72.3-----
2024-02-22 05:18 pm SW 8.0 9.9----29.94- 72.5-----
2024-02-22 05:12 pm SW 7.0 9.9----29.95- 72.5-----
2024-02-22 05:06 pmSSW 7.0 11.1----29.94- 72.3-----
2024-02-22 05:00 pm SW 5.1 8.0----29.95-0.06 72.3-----
2024-02-22 04:54 pm S 4.1 7.0----29.95- 71.1-----
2024-02-22 04:48 pm S 5.1 7.0----29.95- 70.5-----
2024-02-22 04:42 pm S 5.1 7.0----29.94- 70.3-----
2024-02-22 04:36 pm S 5.1 8.0----29.95- 71.1-----
2024-02-22 04:30 pm S 5.1 6.0----29.95- 70.0-----
2024-02-22 04:24 pm S 4.1 7.0----29.95- 70.0-----
2024-02-22 04:18 pm S 5.1 7.0----29.95- 70.2-----
2024-02-22 04:12 pm S 6.0 8.9----29.95- 70.2-----
2024-02-22 04:06 pmSSE 6.0 8.0----29.95- 70.5-----
2024-02-22 04:00 pmSSE 4.1 7.0----29.96-0.11 70.5-----
2024-02-22 03:54 pm S 6.0 7.0----29.96- 70.5-----
2024-02-22 03:48 pmSSE 5.1 6.0----29.96- 70.3-----
2024-02-22 03:42 pmSSE 2.9 5.1----29.96- 70.3-----
2024-02-22 03:36 pmSSE 2.9 5.1----29.96- 70.3-----
2024-02-22 03:30 pm S 4.1 5.1----29.96- 69.6-----
2024-02-22 03:24 pm S 4.1 6.0----29.96- 69.6-----
2024-02-22 03:18 pmSSE 4.1 6.0----29.96- 69.6-----
2024-02-22 03:12 pm S 2.9 5.1----29.97- 69.6-----
2024-02-22 03:06 pm S 4.1 5.1----29.97- 69.8-----
2024-02-22 03:00 pm S 4.1 6.0----29.97-0.13 68.9-----
2024-02-22 02:54 pm S 4.1 7.0----29.97- 68.7-----
2024-02-22 02:48 pm S 6.0 8.0----29.97- 68.4-----
2024-02-22 02:42 pm S 4.1 5.1----29.98- 68.0-----
2024-02-22 02:36 pmSSW 2.9 4.1----29.98- 68.2-----
2024-02-22 02:30 pm S 2.9 5.1----29.98- 68.4-----
2024-02-22 02:24 pm S 4.1 5.1----29.99- 67.8-----
2024-02-22 02:18 pm S 5.1 6.0----29.99- 68.0-----
2024-02-22 02:12 pm S 5.1 7.0----30.00- 67.5-----
2024-02-22 02:06 pm S 5.1 7.0----30.01- 67.3-----
2024-02-22 02:00 pm S 6.0 8.0----30.01-0.12 67.1-----
2024-02-22 01:54 pm S 6.0 8.0----30.01- 67.1-----
2024-02-22 01:48 pmSSE 6.0 7.0----30.02- 67.1-----
2024-02-22 01:42 pm S 5.1 7.0----30.03- 67.1-----
2024-02-22 01:36 pm S 5.1 7.0----30.03- 67.3-----
2024-02-22 01:30 pmSSE 5.1 6.0----30.04- 67.3-----
2024-02-22 01:24 pmSSE 5.1 6.0----30.04- 67.1-----
2024-02-22 01:18 pmSSE 5.1 6.0----30.05- 66.9-----
2024-02-22 01:12 pmSSE 4.1 5.1----30.05- 66.4-----
2024-02-22 01:06 pm SE 2.9 4.1----30.06- 65.3-----
2024-02-22 01:00 pmSSE 2.9 4.1----30.07-0.08 66.0-----
2024-02-22 12:54 pmSSE 4.1 4.1----30.07- 66.2-----
2024-02-22 12:48 pmSSE 4.1 5.1----30.07- 66.0-----
2024-02-22 12:42 pmSSE 2.9 4.1----30.08- 66.0-----
2024-02-22 12:36 pmESE 1.9 2.9----30.09- 64.9-----
2024-02-22 12:30 pm E 1.9 1.9----30.09- 64.6-----
2024-02-22 12:24 pm- 0.0 1.9----30.09- 65.1-----
2024-02-22 12:18 pm- 0.0 1.9----30.09- 66.2-----
2024-02-22 12:12 pm S 1.0 1.9----30.10- 64.8-----
2024-02-22 12:06 pmSSW 1.0 1.9----30.10- 64.0-----
2024-02-22 12:00 pmSSW 1.0 2.9----30.10-0.05 63.7-----
2024-02-22 11:54 amSSW 1.9 2.9----30.10- 63.0-----
2024-02-22 11:48 amSSW 1.9 2.9----30.11- 62.4-----
2024-02-22 11:42 amSSW 1.9 2.9----30.11- 62.2-----
2024-02-22 11:36 am S 1.9 2.9----30.11- 62.4-----
2024-02-22 11:30 am S 1.9 2.9----30.12- 61.7-----
2024-02-22 11:24 am S 1.9 1.9----30.12- 61.5-----
2024-02-22 11:18 am S 1.0 1.9----30.13- 61.2-----
2024-02-22 11:12 am S 1.0 1.9----30.13- 61.0-----
2024-02-22 11:06 am- 0.0 1.9----30.13- 60.8-----
2024-02-22 11:00 am- 0.0 1.9----30.14-0.02 60.3-----
2024-02-22 10:54 am- 0.0 1.0----30.14- 59.0-----
2024-02-22 10:48 am- 0.0 1.0----30.14-------
2024-02-22 10:42 am- 0.0 1.0----30.14-------
2024-02-22 10:36 am- 0.0 1.0----30.14-------
2024-02-22 10:30 am- 0.0 1.0----30.14- 57.4-----
2024-02-22 10:24 am- 0.0 1.0----30.14- 57.2-----
2024-02-22 10:18 am E 1.0 1.9----30.14- 56.7-----
2024-02-22 10:12 am E 1.9 1.9----30.14- 55.9-----
2024-02-22 10:06 am E 1.0 1.9----30.15- 55.4-----
2024-02-22 10:00 am E 1.0 1.0----30.15+0.00 55.4-----
2024-02-22 09:54 am E 1.0 1.9----30.15- 54.9-----
2024-02-22 09:48 am E 1.0 1.9----30.15- 54.3-----
2024-02-22 09:42 am E 1.9 2.9----30.15- 54.0-----
2024-02-22 09:36 am E 1.9 1.9----30.14- 54.1-----
2024-02-22 09:30 am E 1.0 1.9----30.14- 54.5-----
2024-02-22 09:24 amESE 1.0 1.0----30.14- 54.5-----
2024-02-22 09:18 am- 0.0 1.0----30.15- 54.1-----
2024-02-22 09:12 am- 0.0 1.0----30.15- 53.6-----
2024-02-22 09:06 am- 0.0 1.9----30.15- 53.2-----
2024-02-22 09:00 am NW 1.0 1.9----30.15+0.02 52.7-----
2024-02-22 08:54 amNNW 1.9 1.9----30.15- 52.0-----
2024-02-22 08:48 amNNW 1.0 1.9----30.15- 51.6-----
2024-02-22 08:42 amNNW 1.0 1.9----30.15- 51.3-----
2024-02-22 08:36 am- 0.0 1.0----30.15- 51.6-----
2024-02-22 08:30 am- 0.0 1.0----30.15- 50.7-----
2024-02-22 08:24 am- 0.0 0.0----30.15- 50.4-----
2024-02-22 08:18 am- 0.0 1.0----30.15- 49.3-----
2024-02-22 08:12 am- 0.0 1.0----30.15- 47.7-----
2024-02-22 08:06 am- 0.0 1.0----30.15- 46.8-----
2024-02-22 08:00 am- 0.0 1.0----30.15+0.02 46.2-----
2024-02-22 07:54 am- 0.0 1.0----30.15- 45.7-----
2024-02-22 07:48 am- 0.0 1.0----30.15- 44.8-----
2024-02-22 07:42 am W 1.0 1.9----30.14- 44.4-----
2024-02-22 07:36 am- 0.0 1.0----30.15- 43.7-----
2024-02-22 07:30 am- 0.0 1.9----30.14- 43.5-----
2024-02-22 07:24 amWNW 1.0 1.9----30.15- 42.6-----
2024-02-22 07:18 am NW 1.9 1.9----30.15- 42.3-----
2024-02-22 07:12 amWNW 1.9 1.9----30.14- 42.1-----
2024-02-22 07:06 am- 0.0 1.0----30.14- 41.7-----
2024-02-22 07:00 am- 0.0 1.0----30.14+0.00 41.7-----
2024-02-22 06:54 am NW 1.0 1.9----30.14- 41.5-----
2024-02-22 06:48 am NW 1.9 1.9----30.14- 41.2-----
2024-02-22 06:42 am NW 1.9 1.9----30.14- 41.5-----
2024-02-22 06:36 am NW 1.9 1.9----30.14- 41.5-----
2024-02-22 06:30 am NW 1.9 1.9----30.14- 41.5-----
2024-02-22 06:24 am NW 1.9 1.9----30.14- 41.9-----
2024-02-22 06:18 am NW 1.9 1.9----30.14- 41.9-----
2024-02-22 06:12 am NW 1.9 2.9----30.14- 41.9-----
2024-02-22 06:06 am NW 2.9 2.9----30.14- 42.3-----
2024-02-22 06:00 amWNW 1.9 2.9----30.14-0.01------
2024-02-22 05:54 amWNW 2.9 2.9----30.14-------
2024-02-22 05:48 amWNW 2.9 2.9----30.14- 42.1-----
2024-02-22 05:42 amWNW 2.9 2.9----30.14- 42.1-----
2024-02-22 05:36 amWNW 1.9 1.9----30.14- 42.4-----
2024-02-22 05:30 amWNW 1.9 1.9----30.14- 42.6-----
2024-02-22 05:24 amWNW 1.0 1.9----30.14- 42.6-----
2024-02-22 05:18 amWNW 1.9 1.9----30.14- 42.4-----
2024-02-22 05:12 am W 1.0 1.9----30.14- 43.0-----
2024-02-22 05:06 am- 0.0 1.0----30.14- 42.8-----
2024-02-22 05:00 am NW 1.0 1.0----30.14-0.03 42.6-----
2024-02-22 04:54 amNNW 1.0 1.0----30.13- 42.8-----
2024-02-22 04:48 amNNW 1.0 1.9----30.13- 42.6-----
2024-02-22 04:42 am N 1.0 1.0----30.14- 42.6-----
2024-02-22 04:36 am- 0.0 1.0----30.14- 42.6-----
2024-02-22 04:30 amWNW 1.0 1.0----30.14- 42.6-----
2024-02-22 04:24 amWNW 1.0 1.0----30.13- 42.8-----
2024-02-22 04:18 am- 0.0 1.0----30.14- 42.6-----
2024-02-22 04:12 am- 0.0 1.0----30.14- 42.6-----
2024-02-22 04:06 am NW 1.0 1.9----30.14- 42.6-----
2024-02-22 04:00 am NW 1.0 1.9----30.14-0.03 43.2-----
2024-02-22 03:54 am- 0.0 1.0----30.14- 42.8-----
2024-02-22 03:48 am- 0.0 1.0----30.13- 43.3-----
2024-02-22 03:42 amWNW 1.0 1.0----30.14- 43.0-----
2024-02-22 03:36 am- 0.0 1.9----30.14- 43.0-----
2024-02-22 03:30 am NW 1.0 1.9----30.15- 43.2-----
2024-02-22 03:24 am- 0.0 1.9----30.15- 43.3-----
2024-02-22 03:18 am- 0.0 1.0----30.15- 43.3-----
2024-02-22 03:12 am- 0.0 0.0----30.14- 43.2-----
2024-02-22 03:06 am- 0.0 1.9----30.14- 43.2-----
2024-02-22 03:00 am- 0.0 1.0----30.14-0.03 43.3-----
2024-02-22 02:54 am- 0.0 1.0----30.14- 43.3-----
2024-02-22 02:48 am- 0.0 1.0----30.14- 43.7-----
2024-02-22 02:42 am- 0.0 1.0----30.14- 43.9-----
2024-02-22 02:36 am- 0.0 2.9----30.15- 43.9-----
2024-02-22 02:30 amWNW 1.9 4.1----30.16- 44.1-----
2024-02-22 02:24 am NW 1.0 2.9----30.16- 44.2-----
2024-02-22 02:18 amWNW 2.9 4.1----30.16- 43.9-----
2024-02-22 02:12 amWNW 2.9 2.9----30.16- 44.1-----
2024-02-22 02:06 am- 0.0 1.0----30.16- 44.4-----
2024-02-22 02:00 am- 0.0 1.9----30.16-0.03 44.2-----
2024-02-22 01:54 amWNW 1.9 2.9----30.17- 44.4-----
2024-02-22 01:48 am- 0.0 1.0----30.17- 44.6-----
2024-02-22 01:42 am- 0.0 2.9----30.17- 44.6-----
2024-02-22 01:36 amWNW 1.9 2.9----30.17- 44.2-----
2024-02-22 01:30 amWNW 2.9 5.1----30.17- 44.2-----
2024-02-22 01:24 amWNW 2.9 4.1----30.17- 44.4-----
2024-02-22 01:18 amWNW 1.0 2.9----30.17- 44.6-----
2024-02-22 01:12 amWNW 2.9 2.9----30.17- 44.4-----
2024-02-22 01:06 amWNW 2.9 2.9----30.16- 44.4-----
2024-02-22 01:00 amWNW 2.9 2.9----30.17-0.05 44.6-----
2024-02-22 12:54 am W 2.9 2.9----30.17- 44.4-----